Location: San Antonio
(29.4240°N, 98.4930°W)
Time: 10:03:24
(UTC-06:00)

Transit 4A - Pass Details

Date: 15 December 2025
Orbit: 867 x 974 km, 66.8° (Epoch: 17 January)

Event Time Altitude Azimuth Distance (km) Brightness Sun altitude
Rises 18:16:17 0° 202° (SSW) 3,451 11.6 -8.5°
Reaches altitude 10° 18:18:45 10° 202° (SSW) 2,508 10.8 -9.0°
Maximum altitude 18:24:33 88° 114° (ESE) 870 7.8 -10.2°
Drops below altitude 10° 18:30:21 10° 25° (NNE) 2,514 9.8 -11.4°
Enters shadow 18:31:42 - 25° (NNE) 3,025 10.2 -11.7°
